This is the latest recevied weather packets stored in our database for station/object K1BES. If no packets are shown the sender has not sent any weather packets the latest 10 day(s).
| Time | Temp. | Humidity | Pressure | Rain* | Wind** | Luminosity | Snow |
|---|---|---|---|---|---|---|---|
| 1787868506 | 30.56° C | 74% | 1017.4 hPa | 0 mm | - | 88 W/m² | - |
| 1787868205 | 30.56° C | 73% | 1017.7 hPa | 0 mm | - | 102 W/m² | - |
| 1787867901 | 31.11° C | 73% | 1017.6 hPa | 0 mm | - | 119 W/m² | - |
| 1787867596 | 31.11° C | 74% | 1017.6 hPa | 0 mm | - | 154 W/m² | - |
| 1787867296 | 30.56° C | 73% | 1017.4 hPa | 0 mm | - | 164 W/m² | - |
| 1787866993 | 30.56° C | 72% | 1017.5 hPa | 0 mm | - | 173 W/m² | - |
| 1787866687 | 30.56° C | 73% | 1017.7 hPa | 0 mm | - | 184 W/m² | - |
| 1787866386 | 30.56° C | 73% | 1017.5 hPa | 0 mm | - | 188 W/m² | - |
| 1787866081 | 30.56° C | 73% | 1017.5 hPa | 0 mm | - | 179 W/m² | - |
| 1787865775 | 30.56° C | 74% | 1017.8 hPa | 0 mm | - | 181 W/m² | - |
| 1787865471 | 30° C | 74% | 1017.8 hPa | 0 mm | - | 193 W/m² | - |
| 1787865166 | 30° C | 74% | 1017.7 hPa | 0 mm | - | 189 W/m² | - |
| 1787864863 | 30° C | 73% | 1017.8 hPa | 0 mm | - | 143 W/m² | - |
| 1787864562 | 30° C | 75% | 1017.6 hPa | 0 mm | - | 163 W/m² | - |
| 1787864257 | 30° C | 74% | 1017.8 hPa | 0 mm | - | 166 W/m² | - |
| 1787863952 | 30° C | 74% | 1017.8 hPa | 0 mm | - | 179 W/m² | - |
| 1787863650 | 30° C | 74% | 1017.6 hPa | 0 mm | - | 171 W/m² | - |
| 1787863349 | 30.56° C | 73% | 1017.8 hPa | 0 mm | - | 172 W/m² | - |
| 1787863045 | 30.56° C | 72% | 1018.1 hPa | 0 mm | - | 195 W/m² | - |
| 1787862740 | 30.56° C | 68% | 1018.3 hPa | 0 mm | - | 254 W/m² | - |
| 1787862440 | 30.56° C | 69% | 1018.2 hPa | 0 mm | - | 251 W/m² | - |
| 1787862135 | 30.56° C | 69% | 1018.4 hPa | 0 mm | - | 242 W/m² | - |
| 1787861830 | 30.56° C | 68% | 1018.6 hPa | 0 mm | - | 250 W/m² | - |
| 1787861528 | 30.56° C | 69% | 1018.5 hPa | 0 mm | - | 243 W/m² | - |
| 1787861223 | 30.56° C | 69% | 1018.6 hPa | 0 mm | - | 253 W/m² | - |
* Rain latest hour (hover to see other rain measurements)
** Current wind speed in m/s (hover to see current wind gust speed)